Back to catalog

STARLINK-11345

AliveCommunicationsVLEO
NORAD 62093·PAYLOAD·🇺🇸 United States

Launched Nov 25, 2024 from Cape Canaveral Space Force Station

Loading…

Next Passes (next 24 hours)

TLE

FreshSource: CelesTrak SupGP

Epoch: Sep 14, 2026, 21:20 UTC

1 62093C 24220F   26257.88937500 -.00033823  00000+0 -26253-3 0  2570
2 62093  43.0005 342.6408 0001707 276.0051 290.4508 15.70870886    16

Track STARLINK-11345 in real time with AllMySat

Download on the App Store